Retour au catalogue

STARLINK-6096

ActifCommunicationsVLEO
NORAD 56103·PAYLOAD·🇺🇸 United States

Lancé Mar 29, 2023 depuis Cape Canaveral Space Force Station

Loading…

Prochains Passages (prochaines 24 heures)

TLE

FraisSource: CelesTrak SupGP

Époque: Sep 15, 2026, 02:38 UTC

1 56103C 23046L   26258.11020833  .00018275  00000+0  66206-3 0  2584
2 56103  42.9997 171.6132 0001079 257.0230  89.6535 15.27563676    19

Suivez STARLINK-6096 en temps réel avec AllMySat

Download on the App Store